Время (UTC), дата Ветер
(°,м/с) 
Видим.   Явления Облачность Т
(°С)
Тd
(°С)
f(%) Тe
(°С)
Pmin
(гПа)
dP
(гПа)
Po
(мм)
O2
(г/м3)
Тmin Tmax R s Состояние
почвы
00 01.10.13 300 (СЗ) 10 км  слаб. снег  10/10 300 м 
[Frnb|Ns]
+0.6 -0.8 90 1008.3  0.4  745  300           
03 01.10.13 310 (СЗ) 10 км  в посл. час снег  10/10 480 м кучево-дожд. 
[Cb cap]
+0.7 -1 88 -1  1008.7  0.4  745  300  +0.3    0.6    мокрая 
06 01.10.13 300 (СЗ) 10 км    10/10 500 м кучево-дожд. 
[Cb cap]
+1.4 -0.9 85 +1  1009.6  0.9  746  299           
09 01.10.13 270 (З) 10 км  в посл. час крупа{снег}  10/10 720 м 
[Sc]
+1.8 -1.7 78 1010.7  1.1  747  299           
12 01.10.13 270 (З) 20000 м  в посл. час снег  9/6 600 м средняя 
[Sc|Ac cast]
+3 -1.7 71 +2  1011.5  0.8  748  298           
15 01.10.13 270 (З) 10 км    10/10 1110 м 
[Sc]
+2.3 -1.5 76 +1  1012.7  1.1  748  299    +3.1  0.0     
18 01.10.13 290 (З) 10 км    10/10 1080 м 
[Sc]
+2.5 -0.8 79 +1  1013.8  1.1  749  299           
21 01.10.13 280 (З) 10 км    10/10 480 м 
[Sc]
+2.6 +0 83 +1  1014.8  750  299           
00 02.10.13 290 (З) 10 км    10/10 570 м 
[Sc]
+2.3 -0.3 83 +2  1016.2  1.3  751  300           
03 02.10.13 310 (СЗ) 10 км    9/9 960 м 
[Sc]
+1.7 -1.2 81 +1  1017.4  1.2  752  301  +1.6        влажная 
06 02.10.13 300 (СЗ) 10 км    6/4 600 м средняя 
[Sc|Ac lent]
+3.8 -2.2 65 +3  1018.5  1.2  753  299           
09 02.10.13 290 (З) 10 км    9/9 600 м 
[Sc]
+4.2 -2.3 63 +3  1019.9  1.4  754  299           
12 02.10.13 280 (З) 10 км    9/9 1300 м 
[Sc]
+4.6 -0.7 68 +3  1020.9  755  299           
15 02.10.13 310 (СЗ) 10 км    10/10 960 м 
[Sc]
+3.5 -1.8 68 +3  1022.2  1.2  756  301    +4.7       
18 02.10.13 290 (З) 10 км    10/10 930 м 
[Sc]
+2.9 -1.2 74 +2  1023.2  0.9  756  302           
21 02.10.13 010 (С) 10 км    10/10 1110 м 
[Sc]
+1.9 -2.2 74 +3  1024  0.7  757  303           
00 03.10.13 010 (С) 10 км    10/10 1000 м 
[Cu Sc]
+1.3 -2.3 77 +1  1024.6  0.7  757  304           
03 03.10.13 010 (С) 10 км    10/10 900 м 
[Sc]
+0.5 -2.6 80 1025.2  0.5  758  305  +0.3        влажная 
06 03.10.13 350 (С) 10 км  слаб. снег  10/10 700 м 
[Sc]
+0.3 -2.9 79 1025.6  0.4  758  305  +0.2         
09 03.10.13 020 (С) 10 км    10/10 930 м 
[Sc]
+2 -4.4 63 +1  1025.7  0.1  758  304           
12 03.10.13 020 (С) 10 км    10/10 1020 м 
[Sc]
+3.3 -3.6 60 +3  1025.2  -0.5  758  302           
15 03.10.13 010 (С) 10 км    10/10 1110 м 
[Sc]
+2.9 -4 61 +2  1025.5  0.3  758  303    +3.4       
18 03.10.13 360 (С) 10 км    10/10 1170 м 
[Sc]
+1.5 -4.4 65 1026.4  0.8  758  304           
21 03.10.13 360 (С) 10 км    10/10 1230 м 
[Sc]
+0.9 -4.6 67 1027.1  0.7  759  305           
00 04.10.13 360 (С) 10 км    10/10 1110 м 
[Sc]
+0.6 -3.4 74 1027.2  0.1  759  306           
03 04.10.13 040 (СВ) 10 км    10/10 1020 м 
[Sc]
+0.6 -2.8 78 +1  1027.1  0.1  759  305  +0.6        влажная 
06 04.10.13 050 (СВ) 10 км    10/10 840 м 
[Sc]
+1.4 -4.4 65 +1  1028  0.9  760  305           
09 04.10.13 010 (С) 10 км    10/10 720 м 
[Sc]
+1.3 -4.1 67 +1  1028.6  0.5  760  305           
12 04.10.13 050 (СВ) 10 км    10/10 800 м 
[Sc]
+1.9 -4.4 63 1027.4  -1.2  759  304           
15 04.10.13 070 (В) 10 км    10/10 840 м 
[Sc]
+1.1 -3.6 71 +2  1027.5  0.1  759  305    +2.1       
18 04.10.13 070 (В) 10 км    10/10 800 м 
[Sc]
+1 -3.2 74 +2  1027.4  0.1  759  305           
21 04.10.13 070 (В) 10 км  слаб. снег  10/10 700 м 
[Sc]
+0.5 -4.3 70 1026.6  -0.8  759  306           
00 05.10.13 080 (В) 10 км  {снег}  10/10 800 м 
[Sc]
-0.2 -4.1 75 -1  1026.1  -0.5  758  306           
03 05.10.13 060 (СВ) 10 км    10/10 720 м 
[Sc]
-0.6 -4.2 77 -1  1025.3  -0.9  758  306  -0.7    0.0    влажная 
06 05.10.13 070 (В) 10 км    10/10 600 м 
[Sc]
-0.7 -4.4 76 -2  1024.9  -0.4  757  306  -0.8         
09 05.10.13 080 (В) 10 км    10/10 600 м 
[Sc]
+0 -3.7 76 +1  1024.1  -0.7  757  305           
12 05.10.13 010 (С) 10 км    10/10 900 м 
[Sc]
+0.9 -3.8 71 1021.7  -2.3  755  304           
15 05.10.13 010 (С) 10 км    10/10 800 м 
[Sc]
+0.2 -4 73 -1  1020.9  -0.8  754  304    +0.9       
18 05.10.13 350 (С) 10 км    10/10 720 м 
[Sc]
+0 -4.5 72 +1  1020.2  -0.7  754  304           
21 05.10.13 340 (С) 10 км    10/10 900 м 
[Sc]
-0.2 -3.9 76 1018.9  -1.3  753  304           
00 06.10.13 300 (СЗ) 10 км    10/10 900 м 
[Sc]
-0.1 -4.3 73 -1  1018.1  -0.8  752  304           
03 06.10.13 тихо ()   10 км    9/9 900 м 
[Sc]
+0.1 -3.4 77 1017.3  -0.8  752  303  -0.3        влажная 
06 06.10.13 240 (ЮЗ) 10 км    10/10 1000 м 
[Sc]
+2.3 -2.6 70 +2  1017.3  0.1  752  301           
09 06.10.13 240 (ЮЗ) 10 км    10/10 1050 м 
[Sc]
+3.4 -2.5 65 +2  1016.6  -0.6  751  299           
12 06.10.13 240 (ЮЗ) 20000 м    9/0 средняя, верхняя 
[As op|Ci fib]
+4.9 -0.4 68 +5  1015  -1.5  750  297           
15 06.10.13 240 (ЮЗ) 10 км    9/9 960 м 
[Sc]
+5 +1.4 78 +5  1014.4  -0.6  750  296    +5.2       
18 06.10.13 240 (ЮЗ) 10 км    ясно 
+4.1 +1.7 84 +4  1014.8  0.4  750  297           
21 06.10.13 230 (ЮЗ) 10 км    ясно 
+3.4 +1.4 87 +3  1014.5  -0.4  750  298           
00 07.10.13 230 (ЮЗ) 10 км    5/0 верхняя 
[Cc]
+2.5 +0.9 89 +3  1014.1  -0.4  749  299           
03 07.10.13 220 (ЮЗ) 10 км    8/0 верхняя 
[Ci fib]
+2.3 +0.6 88 +2  1013.6  -0.5  749  299  +2.3        влажная 
06 07.10.13 260 (З) 10 км    4/0 средняя, верхняя 
[Ac lent|Ci fib]
+5.9 +2.8 80 +5  1014  0.5  749  295           
09 07.10.13 250 (З) 10 км    10/8 1000 м средняя, верхняя 
[Sc|Ac lent|Ci fib]
+9.4 +4 69 +9  1013.3  -0.4  749  291           
12 07.10.13 270 (З) 10 км    10/10 750 м 
[Sc]
+9.9 +4.7 70 +9  1013.5  0.1  749  291           
15 07.10.13 270 (З) 10 км    10/10 540 м 
[Sc]
+8.7 +5 78 +8  1013.8  0.1  749  292    +9.9       
18 07.10.13 260 (З) 10 км  слаб. дождь  10/10 300 м 
[Frnb|Ns]
+7.4 +5.7 89 +7  1013.4  0.1  749  293           
21 07.10.13 270 (З) 10 км  слаб. морось{дождь}  10/10 300 м 
[St]
+7 +5.7 91 +7  1012.6  -0.7  749  293           
00 08.10.13 270 (З) 10 км  слаб. морось{дождь}  10/10 240 м 
[St]
+7.3 +6.1 92 +7  1012.1  -0.5  748  293           
03 08.10.13 270 (З) 4000 м  морось  10/10 210 м 
[St]
+7.6 +6.5 93 +7  1012.4  0.3  748  292  +7      влажная 
06 08.10.13 280 (З) 4000 м  дымка{морось}  10/10 300 м 
[St]
+8.4 +7.3 93 +8  1013.2  0.9  749  292           
09 08.10.13 280 (З) 10 км  {морось}  10/10 600 м 
[Sc]
+10.1 +7.5 84 +10  1013.7  0.5  749  290           
12 08.10.13 280 (З) 10 км  {ливн. осадки, морось}  10/10 300 м 
[St]
+10.1 +8.4 89 +10  1013.7  749  290           
15 08.10.13 280 (З) 10 км  {ливн. осадки}  9/8 300 м средняя 
[St|Ac lent]
+9.4 +8.3 93 +9  1014.8  1.1  750  291    +10.6  0.9     
18 08.10.13 290 (З) 10 км  {ливн. осадки}  6/4 300 м средняя 
[St|Ac lent]
+8.7 +7.8 94 +10  1016.2  1.3  751  292           
21 08.10.13 040 (СВ) 10 км  в посл. час дождь  10/10 840 м 
[Sc]
+6.2 +4.9 91 +6  1017.6  1.2  752  296           
00 09.10.13 010 (С) 10 км    ясно 
+4.5 +2.2 85 +4  1019.5  1.7  754  298           
03 09.10.13 020 (С) 10 км    ясно 
+1.4 -0.2 89 +2  1021  1.3  755  302  +1.4    0.4    влажная 
06 09.10.13 230 (ЮЗ) 20000 м    8/0 верхняя 
[Cs]
+5.7 +1.2 73 +7  1022  1.2  755  298  +1.1         
09 09.10.13 280 (З) 20000 м    5/0 верхняя 
[Ci fib]
+8.2 -0.9 53 +8  1021.7  -0.2  755  296           
12 09.10.13 230 (ЮЗ) 20000 м    8/3 1000 м средняя, верхняя 
[Sc|Ac lent|Ci sp]
+9 +1.5 59 +9  1021  -0.6  755  294           
15 09.10.13 150 (ЮВ) 10 км    8/6 1000 м средняя 
[Sc|Ac lent]
+7.7 +3.8 76 +9  1020.5  -0.5  754  295    +9.8       
18 09.10.13 160 (Ю) 10 км  слаб. дождь  10/10 900 м 
[Sc]
+7.9 +5.4 84 +9  1019.5  -1  754  294           
21 09.10.13 190 (Ю) 4000 м  дождь  10/10 480 м 
[Ns]
+9 +7.9 93 +10  1017.8  -1.5  752  292           
00 10.10.13 240 (ЮЗ) 4000 м  дождь  10/10 300 м 
[Frnb|Ns]
+10 +9.1 94 +10  1016.6  -1.1  752  291           
03 10.10.13 270 (З) 10 км  в посл. час дождь  10/10 300 м 
[St]
+10.5 +9.7 95 +12  1017.5  0.8  752  290  +7.4      мокрая 
06 10.10.13 260 (З) 10 км  {дождь}  10/10 300 м 
[St]
+11.1 +10 93 +12  1018.9  1.4  753  290           
09 10.10.13 270 (З) 10 км  в посл. час морось  10/10 300 м 
[St]
+11.7 +10 89 +13  1020.2  1.3  754  290           
12 10.10.13 260 (З) 10 км  {морось}  10/9 450 м средняя 
[St|As op]
+12 +9.8 86 +13  1021.6  1.4  755  290           
15 10.10.13 240 (ЮЗ) 10 км    10/8 600 м средняя 
[Sc|As op]
+11.3 +9.6 89 +12  1023.2  1.5  757  291    +12.2  0.0     
18 10.10.13 250 (З) 10 км    10/8 480 м средняя 
[St|As op]
+11 +9.1 88 +11  1024.1  757  292           
21 10.10.13 240 (ЮЗ) 10 км  в посл. час морось  10/10 330 м 
[St]
+10.3 +9 92 +10  1025.1  0.9  758  293           
00 11.10.13 250 (З) 4000 м  морось  10/10 210 м 
[St]
+9.8 +8.7 93 +11  1025.5  0.3  758  293           
03 11.10.13 210 (ЮЗ) 10 км  в посл. час морось  10/10 150 м 
[St]
+9 +8.2 95 +10  1025.6  0.1  758  294  +9    0.4     
06 11.10.13 тихо ()   2000 м  слаб. морось  10/10 300 м 
[St]
+9.2 +8.5 95 +9  1025.8  0.2  758  294  +8.9         
09 11.10.13 240 (ЮЗ) 2000 м  дымка{морось}  10/10 330 м 
[St]
+10.2 +8.5 89 +10  1025.5  -0.2  758  293           
12 11.10.13 190 (Ю) 4000 м  дымка{морось}  10/10 330 м 
[St]
+10.6 +7.7 82 +12  1024.6  -1  758  293           
15 11.10.13 240 (ЮЗ) 4000 м  дымка  10/10 1200 м 
[Sc]
+10.7 +7.6 81 +11  1024  -0.5  757  292    +10.7  0.0     
18 11.10.13 230 (ЮЗ) 4000 м  слаб. дождь  10/10 200 м 
[Frnb]
+9.9 +8.4 90 +10  1024  -0.7  757  293           
21 11.10.13 190 (Ю) 4000 м  дымка{дождь}  10/10 930 м 
[Sc]
+9.7 +8.5 92 +11  1021.2  -2.1  755  292           
00 12.10.13 230 (ЮЗ) 10 км  {дождь}  10/10 840 м 
[Sc]
+9.7 +7.2 84 +10  1019  -2.2  753  292           
03 12.10.13 240 (ЮЗ) 4000 м  дымка{дождь}  10/10 570 м 
[Sc]
+9 +7.5 90 +8  1017.4  -1.6  752  292  +9       
06 12.10.13 250 (З) 4000 м  дымка{дождь}  10/10 420 м 
[St]
+9.8 +8.2 90 +9  1016.1  -1.2  751  291  +8.9         
09 12.10.13 290 (З) 2000 м  дождь  10/10 300 м 
[Ns]
+9.4 +8 91 +9  1016.2  751  291           
12 12.10.13 290 (З) 10 км  {дождь}  9/4 600 м средняя 
[Sc|Ac lent]
+8.6 +6.6 87 +9  1017  0.7  752  293           
15 12.10.13 300 (СЗ) 10 км    4/3 600 м средняя 
[Sc|Ac lent]
+7.7 +3.6 75 +7  1018  753  294    +10.2     
18 12.10.13 300 (СЗ) 10 км    3/0 средняя, верхняя 
[Ac lent|Cc]
+5.5 +1.3 74 +4  1019.6  1.4  754  297           
21 12.10.13 310 (СЗ) 10 км    ясно 
+3.6 +1.3 85 +3  1019.8  0.2  754  300           
00 13.10.13 290 (З) 10 км    8/0 верхняя 
[Ci sp]
+3.2 +1.3 87 +3  1019.5  -0.4  753  300           
03 13.10.13 290 (З) 10 км    6/3 600 м средняя 
[Sc|Ac lent]
+2.8 +0.6 85 +1  1019.2  -0.3  753  300  +2.8         
06 13.10.13 260 (З) 20000 м    5/4 1000 м средняя 
[Cu med, cong|Ac lent]
+3.7 +1.5 86 +3  1018.7  -0.4  753  299  +2.5         
09 13.10.13 240 (ЮЗ) 20000 м    5/3 1000 м средняя, верхняя 
[Cu hum|Ac lent|Ci fib]
+7.8 +1.8 66 +7  1015.6  -2.9  751  294           
15 13.10.13 230 (ЮЗ) 4{10}  10 км    8/4 1000 м средняя, верхняя 
[Sc diur, vesp|Ac lent|Ci fib]
+7.7 +2.1 68 +6  1007.5  -3.8  745  292    +9.6       
18 13.10.13 250 (З) 5{14}  10 км  в посл. час дождь  10/10 1020 м 
[Sc]
+7.1 +2.3 72 +5  1003.6  -3.8  742  291           
21 13.10.13 310 (СЗ) 6-15{15}  4000 м  дождь  10/10 480 м 
[Ns]
+5.1 +2.3 82 +3  1002.5  -1.1  741  293           
00 14.10.13 300 (СЗ) 4{15}  10 км  {дождь}  10/10 750 м 
[Sc]
+2 -2.9 70 1006  3.1  743  298           
03 14.10.13 320 (СЗ) 4{11}  10 км    10/10 900 м 
[Sc]
+2.2 -3.7 65 1008.5  2.5  745  298  +1.8       
06 14.10.13 320 (СЗ) 4{12}  20000 м    8/8 1000 м 
[Sc]
+1.9 -5.3 59 1011.3  2.7  747  300  +1.6         
09 14.10.13 330 (СЗ) 3{10}  20000 м    8/8 1170 м 
[Sc]
+3.5 -5.9 50 +2  1012.2  748  298           
12 14.10.13 310 (СЗ) 3{11}  10 км    9/9 1410 м 
[Sc]
+4.5 -4.7 51 +3  1012.9  0.8  749  297           
15 14.10.13 280 (З) 10 км    10/10 1300 м 
[Sc diur, vesp]
+4 -2.7 62 +3  1013.8  0.8  749  298    +4.8       
18 14.10.13 270 (З) 10 км    10/10 1260 м 
[Sc diur, vesp]
+3.8 -1.4 69 +2  1013.8  749  298           
21 14.10.13 290 (З) 10 км    10/10 1300 м 
[Sc diur, vesp]
+3.7 -1.9 67 +2  1013.6  0.1  749  298           
00 15.10.13 290 (З) 10 км    10/10 1380 м 
[Sc diur, vesp]
+2.6 -1.5 74 +1  1014.1  0.4  749  299           
03 15.10.13 290 (З) 10 км    10/10 1300 м 
[Sc diur, vesp]
+1.9 -1.7 77 +1  1015.1  0.9  750  300  +1.9         
06 15.10.13 290 (З) 20000 м    9/9 1170 м 
[Sc]
+2.9 -4.1 60 +2  1015.7  0.7  751  300  +1.9         
09 15.10.13 280 (З) 20000 м    10/10 1050 м 
[Sc]
+3.6 -4.9 54 +2  1015.1  -0.6  750  299           
12 15.10.13 260 (З) 20000 м    10/5 1000 м средняя 
[Sc|As op]
+4 -2.8 61 +3  1013.8  -1.2  749  298           
15 15.10.13 240 (ЮЗ) 4{10}  10 км  {снег}  9/9 1470 м 
[Sc]
+4.2 -2.5 62 +2  1012.2  -1.5  748  297    +4.2  0.0     
18 15.10.13 240 (ЮЗ) 10 км  {снег}  9/0 средняя 
[Ac lent]
+5 -1.6 62 +3  1011.3  -1.5  748  296           
21 15.10.13 180 (Ю) 10 км    8/0 средняя, верхняя 
[Ac lent|Ci fib]
+4.9 -2.4 59 +6  1010.2  -1.1  747  296           
00 16.10.13 210 (ЮЗ) 10 км    9/9 1050 м 
[Sc]
+4.9 -0.8 67 +5  1009.1  -1.1  746  295           
03 16.10.13 240 (ЮЗ) 10 км    10/10 1020 м 
[Sc]
+5.9 +0.7 69 +4  1008.3  -0.7  745  294  +3.9         
06 16.10.13 240 (ЮЗ) 10 км    10/10 700 м 
[Sc]
+6.7 +2.5 75 +6  1008.3  745  293           
09 16.10.13 230 (ЮЗ) 6{11}  10 км    10/5 600 м средняя 
[Sc|Ac lent]
+8.6 +4.6 76 +7  1007.5  -0.7  745  290           
12 16.10.13 240 (ЮЗ) 4{13}  10 км  слаб. дождь  10/10 1380 м 
[Ns]
+9.6 +5.7 77 +9  1006.9  -0.5  744  289           
15 16.10.13 230 (ЮЗ) 4{10}  4000 м  дождь  10/10 900 м 
[Ns]
+8.8 +5.9 82 +8  1007.3  0.3  745  290    +9.6  0.7     
18 16.10.13 230 (ЮЗ) 4000 м  слаб. дождь  10/10 570 м 
[]
+8.2 +6.1 87 +8  1007  -0.3  744  290           
21 16.10.13 210 (ЮЗ) 4000 м  слаб. дождь  10/10 600 м 
[Ns]
+8.2 +7.1 93 +9  1006.7  -0.3  744  290           
00 17.10.13 180 (Ю) 4000 м  дождь  10/10 500 м 
[Ns]
+8.1 +7.4 95 +9  1005.7  -0.3  743  290           
03 17.10.13 200 (Ю) 4000 м  дождь  10/10 210 м 
[Frnb|Ns]
+8 +7.3 95 +9  1004.6  -1.1  743  289  +7.9       
06 17.10.13 040 (СВ) 2000 м  слаб. дождь  10/10 300 м 
[Frnb]
+4.2 +3.5 95 +4  1005.5  0.7  743  294  +4.2         
09 17.10.13 020 (С) 4000 м  слаб. дождь  10/10 330 м 
[Frnb|Ns]
+3.5 +2.6 94 +2  1006.8  1.3  744  296           
12 17.10.13 010 (С) 10 км  в посл. час дождь  10/10 420 м 
[Frnb|Ns]
+3 +1.7 91 +2  1009.2  2.4  746  297           
15 17.10.13 030 (СВ) 10 км    6/0 средняя 
[Ac lent]
+2.3 +0.2 86 +2  1012.2  2.8  748  299    +8     
18 17.10.13 020 (С) 10 км    10/0 средняя 
[Ac lent]
+2.1 -1 80 +1  1014.7  2.5  750  300           
21 17.10.13 030 (СВ) 10 км    10/0 средняя 
[Ac lent]
+0.9 -2 81 1016.4  1.6  751  302           
00 18.10.13 040 (СВ) 10 км    10/0 средняя 
[Ac lent]
+0.4 -3.4 76 1018.2  1.7  752  303           
03 18.10.13 060 (СВ) 10 км    10/10 800 м 
[Sc]
+0.2 -4.2 72 -1  1019.9  1.6  754  304  +0.2         
06 18.10.13 090 (В) 10 км    9/9 840 м 
[Sc]
+1.1 -3.5 71 +2  1021.5  1.6  755  303  -0.1         
09 18.10.13 090 (В) 10 км    8/8 600 м 
[Sc]
+2.2 -3.9 64 +2  1021.7  0.3  755  302           
12 18.10.13 120 (ЮВ) 10 км    8/8 600 м 
[Sc]
+1.9 -4 65 +1  1022  0.3  755  303           
15 18.10.13 110 (В) 10 км    ясно 960 м 
+1.4 -3 72 +1  1021.8  -0.3  755  303    +3.5       
18 18.10.13 100 (В) 10 км    ясно 1000 м 
+1.4 -1.5 81 +1  1020.4  -1.4  754  302           
21 18.10.13 100 (В) 10 км    ясно 
+1.2 -0 92 1018.4  -2  753  302           
00 19.10.13 120 (ЮВ) 10 км  {морось}  10/10 270 м 
[St]
+2.2 +1.3 94 +2  1015.6  -2.7  751  300           
03 19.10.13 130 (ЮВ) 4000 м  {дождь}  10/10 270 м 
[Frnb]
+3.8 +3 95 +3  1012.2  -3.2  748  297  +1.2         
06 19.10.13 130 (ЮВ) 2000 м  слаб. морось  10/10 150 м 
[St]
+6.1 +5.5 96 +5  1009.8  -2.3  746  293           
09 19.10.13 160 (Ю) 10 км  {морось}  10/0 средняя 
[Ac As]
+9 +7 87 +9  1006.7  -2.8  744  289           
12 19.10.13 150 (ЮВ) 10 км  {морось}  10/0 средняя 
[Ac As]
+10.7 +5.2 69 +11  1005.2  -2.1  743  287           
15 19.10.13 180 (Ю) 10 км    9/0 средняя 
[As op]
+10.2 +4.9 70 +10  1004.2  -0.3  743  288    +11.1       
18 19.10.13 тихо ()   10 км    10/10 750 м 
[Sc]
+9.3 +5.1 75 +9  1004.8  0.5  743  289           
21 19.10.13 320 (СЗ) 10 км  слаб. дождь  10/10 420 м 
[Frnb|Ns]
+5.9 +4.3 89 +5  1008.3  3.3  745  293           
00 20.10.13 310 (СЗ) 10 км  {дождь}  10/10 480 м 
[Sc]
+2.9 +0.4 84 +2  1012.3  3.8  748  298           
03 20.10.13 310 (СЗ) 10 км    8/0 верхняя 
[Ci fib]
+0.3 -3.3 77 1015  2.4  750  302  +0.3       
06 20.10.13 260 (З) 20000 м    8/0 верхняя 
[Ci fib]
+1.8 -1.9 76 +1  1015.6  0.7  751  301  -0.2         
09 20.10.13 270 (З) 20000 м    6/0 верхняя 
[Ci fib]
+4.3 -0.7 70 +3  1015.2  -0.2  750  298           
12 20.10.13 270 (З) 20000 м    1/1 600 м 
[Sc]
+4.8 -1.8 62 +4  1015.5  0.3  751  297           
15 20.10.13 280 (З) 10 км    ясно 
+3 -3.5 62 +2  1016.6  751  300    +5.2       
18 20.10.13 270 (З) 10 км    ясно 
+1.9 -3.8 66 +1  1017  0.3  752  301           
21 20.10.13 180 (Ю) 10 км    8/0 верхняя 
[Cs]
-0 -3.6 77 +1  1016.5  -0.6  751  303           
00 21.10.13 190 (Ю) 10 км    10/8 1300 м средняя 
[Sc|Ac As]
+0.8 -2.7 77 +1  1016.1  -0.3  751  302           
03 21.10.13 200 (Ю) 4000 м  в посл. час снег  10/10 300 м 
[St]
+1.1 -0.9 87 +2  1015  -1.1  750  301  -0.4    0.0     
06 21.10.13 260 (З) 4000 м  дымка{снег}  10/10 180 м 
[St]
+1.9 +0.2 89 +1  1014.6  -0.4  750  300           
09 21.10.13 260 (З) 4000 м  дымка{снег}  10/10 240 м 
[St]
+2.7 +0.8 87 +2  1014.7  0.2  750  299           
12 21.10.13 280 (З) 10 км  {снег}  8/5 1000 м средняя, верхняя 
[Sc|Ac lent|Ci fib]
+4 -0.6 72 +4  1014.6  750  298           
15 21.10.13 260 (З) 10 км    ясно 
+2 -1.9 75 +1  1015.4  0.7  750  300    +4  0.0     
18 21.10.13 260 (З) 10 км    ясно 
+0.7 -2.4 80 +1  1016.1  0.6  751  302           
21 21.10.13 310 (СЗ) 10 км    ясно 
+0 -3 80 -1  1017  0.9  752  303           
00 22.10.13 тихо ()   10 км    ясно 
-2.2 -4.7 83 -2  1018.2  752  306           
03 22.10.13 тихо ()   10 км    ясно 
-2.9 -5.7 81 -3  1019.6  1.3  753  307  -2.9         
06 22.10.13 360 (С) 20000 м    9/0 средняя 
[Ac lent]
-1.2 -4.9 76 -1  1021.6  755  306  -3.1         
09 22.10.13 020 (С) 20000 м    9/6 1000 м средняя 
[Cu med, cong|Ac lent]
+1.3 -3.2 72 +1  1022.9  1.4  756  304           
12 22.10.13 010 (С) 20000 м    8/8 1000 м средняя 
[Sc diur, vesp|Ac cast]
+1 -6.6 57 -1  1024.5  1.6  757  305           
15 22.10.13 тихо ()   10 км    ясно 
-1 -7.3 62 -1  1026.3  1.6  758  307    +1.7       
18 22.10.13 290 (З) 10 км    ясно 
-1.1 -6.8 65 -1  1027.6  1.3  759  308           
21 22.10.13 тихо ()   10 км    ясно 
-2.4 -6.2 75 -2  1028.9  1.3  760  310           
00 23.10.13 360 (С) 10 км    ясно 
-3.3 -6.9 76 -3  1030.8  1.7  762  311           
03 23.10.13 360 (С) 10 км    ясно 
-4 -7.2 78 -4  1032.2  1.4  763  313  -4.1         
06 23.10.13 010 (С) 10 км    ясно 
-1.4 -5.4 74 -1  1034.1  1.9  764  310  -4.1         
09 23.10.13 280 (З) 20000 м    ясно 
+1.9 -5.1 60 +3  1034.2  0.3  764  306           
12 23.10.13 260 (З) 20000 м    3/0 верхняя 
[Cs]
+3.2 -6.1 51 +4  1034  0.1  764  305           
15 23.10.13 230 (ЮЗ) 10 км    ясно 
+0.1 -6.1 63 +1  1034.2  764  308    +3.3       
18 23.10.13 170 (Ю) 10 км    ясно 
-0.8 -6.2 67 1033.6  -0.6  764  309           
21 23.10.13 190 (Ю) н/о    н/о 
-0.2 -5.6 67 1032.4  -1.2  763  308           
00 24.10.13 240 (ЮЗ) 10 км    10/0 верхняя 
[Cs]
+1.6 -7.4 51 -1  1029.6  -2.7  761  306           
03 24.10.13 230 (ЮЗ) 5-10{11}  10 км    10/0 верхняя 
[Cs]
+1.4 -7.8 50 -1  1026.6  -2.9  759  305  -1.2         
06 24.10.13 240 (ЮЗ) 6-11{12}  10 км    9/0 средняя 
[Ac lent]
+2.1 -5.8 56 -1  1024.1  -2.4  757  303           
09 24.10.13 240 (ЮЗ) 5-11{11}  10 км    9/0 средняя 
[Ac As]
+3.6 -3.5 60 +1  1021.2  -2.7  755  301           
12 24.10.13 250 (З) 5-11{14}  10 км    9/0 средняя, верхняя 
[Ac lent|Ci fib]
+5.1 -2.1 60 +3  1019.1  -2  753  298           
15 24.10.13 240 (ЮЗ) 4{11}  10 км    10/10 800 м 
[Sc]
+6.1 -1.5 58 +5  1018.3  -0.7  753  297    +6.1       
18 24.10.13 250 (З) 4{10}  10 км  слаб. снег  10/10 600 м 
[Sc]
+6 -0.8 62 +4  1017.1  -1.2  752  297           
21 24.10.13 240 (ЮЗ) 10 км  {снег}  10/10 700 м 
[Sc]
+5.5 +0.2 69 +4  1016.5  -0.7  751  297           
00 25.10.13 240 (ЮЗ) 10 км    10/10 700 м 
[Sc]
+5.3 +0.4 71 +4  1015.4  -1.2  750  297           
03 25.10.13 240 (ЮЗ) 10 км    10/10 750 м 
[Sc]
+4.9 -0.5 68 +3  1013.9  -1.3  749  297  +4.9    0.0     
06 25.10.13 240 (ЮЗ) 10 км    10/10 660 м 
[Sc]
+4.8 -0.8 67 +3  1012.7  -1.2  749  296  +4.6         
09 25.10.13 240 (ЮЗ) 10 км  слаб. дождь  10/10 480 м 
[Ns]
+4.7 +0.9 76 +4  1012.2  -0.5  748  296           
12 25.10.13 250 (З) 10 км  {дождь}  10/10 400 м 
[St]
+5.7 +2.9 82 +5  1011.9  -0.3  748  295           
15 25.10.13 250 (З) 4000 м  дымка{морось}  10/10 300 м 
[St]
+6.6 +4.5 86 +6  1012.4  0.6  748  294    +6.6  0.0     
18 25.10.13 240 (ЮЗ) 10 км  {морось}  10/10 270 м 
[St]
+6.6 +4.8 88 +6  1012.4  748  294           
21 25.10.13 240 (ЮЗ) 10 км    10/10 330 м 
[St]
+7 +5.1 88 +7  1011.1  -1.2  747  293           
00 26.10.13 230 (ЮЗ) 10 км    10/10 500 м 
[Sc]
+7.1 +5.3 88 +7  1011  0.1  747  293           
03 26.10.13 230 (ЮЗ) 10 км    10/10 270 м 
[St]
+5.8 +4.2 89 +7  1010.9  -0.2  747  294  +5.3         
06 26.10.13 250 (З) 4000 м  в посл. час дождь  10/10 420 м 
[Frnb]
+7.1 +5.4 89 +6  1010.8  747  293           
09 26.10.13 260 (З) 10 км  в посл. час морось  10/10 450 м 
[St]
+7.5 +5.5 87 +7  1011.1  0.4  748  292           
12 26.10.13 270 (З) 10 км  {дождь, морось}  10/10 1080 м 
[Sc]
+8.4 +5.2 80 +8  1011.6  0.5  748  292           
15 26.10.13 260 (З) 10 км  {дождь}  8/8 540 м 
[Sc]
+7.8 +6.2 90 +8  1012.4  0.8  748  292    +8.4  0.7     
18 26.10.13 250 (З) 10 км  в посл. час снег{дождь}  8/8 420 м 
[St]
+7.6 +6.3 91 +8  1013  0.6  749  293           
21 26.10.13 270 (З) 10 км  слаб. морось  10/10 480 м 
[St]
+7.1 +5.2 88 +6  1013  0.1  749  293           
00 27.10.13 260 (З) 10 км  {морось}  10/8 870 м средняя 
[Sc|Ac lent]
+6.5 +4.8 89 +6  1012.1  -0.8  748  294           
03 27.10.13 200 (Ю) 10 км    9/5 1410 м средняя 
[Sc|Ac As]
+5.8 +4.3 90 +7  1010.9  -1.2  747  294  +5.8    0.8     
06 27.10.13 190 (Ю) 10 км    10/10 1140 м 
[Sc]
+6.4 +4.4 87 +7  1009.7  -1.1  746  293  +5.6         
09 27.10.13 190 (Ю) 4000 м  дождь  10/10 150 м 
[Frnb|Ns]
+6.4 +5 91 +7  1007.6  -2.1  745  292           
12 27.10.13 150 (ЮВ) 2000 м  дождь  10/10 150 м 
[Frnb|Ns]
+6.1 +5.1 93 +6  1005  -2.6  743  292           
15 27.10.13 280 (З) 2000 м  в посл. час морось{дождь}  10/10 100 м 
[St]
+6.6 +5.8 95 +6  1005.3  0.3  743  291    +6.9     
18 27.10.13 300 (СЗ) 1000 м  дымка{дождь, морось}  10/10 60 м 
[St]
+5.6 +4.9 95 +6  1006.5  1.2  744  293           
21 27.10.13 300 (СЗ) 1000 м  дымка  10/10 100 м 
[St]
+5.6 +4.9 95 +6  1007.7  1.1  745  293           
00 28.10.13 260 (З) 2000 м  дымка  10/10 100 м 
[St]
+5.6 +4.9 95 +6  1008.3  0.6  745  293           
03 28.10.13 тихо ()   2000 м  дымка  10/10 300 м 
[St]
+5.5 +4.8 95 +6  1009.4  746  294  +5.5        влажная 
06 28.10.13 170 (Ю) 2000 м  дымка  10/10 210 м 
[St]
+6.1 +5.4 95 +7  1010.4  747  294           
09 28.10.13 140 (ЮВ) 2000 м  слаб. морось  10/10 180 м 
[St]
+6.8 +6 95 +7  1010.9  0.5  747  293           
12 28.10.13 140 (ЮВ) 2000 м  в посл. час морось  10/10 210 м 
[St]
+7.1 +6.4 95 +7  1011.2  0.4  748  293           
15 28.10.13 150 (ЮВ) 0500 м  туман  ?/?  
+7.1 +6.6 97 +7  1011.7  0.5  748  293    +7.2  0.3     
18 28.10.13 160 (Ю) 1000 м  дымка{дождь, туман}  10/10 100 м 
[St]
+7.5 +7 97 +7  1011.4  -0.4  748  292           
21 28.10.13 150 (ЮВ) 4000 м  дымка{туман}  8/0 средняя 
[Ac lent]
+7.6 +7.1 97 +8  1010.6  -0.7  747  292           
00 29.10.13 150 (ЮВ) н/о    н/о 
+6.6 +5.9 95 +6  1010.1  -0.7  747  293           
03 29.10.13 160 (Ю) 10 км    6/0 средняя 
[Ac lent]
+6.3 +5.6 95 +6  1009.8  -0.4  746  293  +6         
06 29.10.13 180 (Ю) 10 км    10/10 420 м 
[Sc]
+7.8 +6.9 94 +8  1009.6  0.1  746  291           
12 29.10.13 190 (Ю) 10 км    10/6 360 м средняя 
[St|As trans]
+10.3 +8.5 89 +11  1008.2  -0.5  745  288           
15 29.10.13 200 (Ю) 10 км    8/8 300 м 
[St]
+10.5 +8.8 89 +12  1007.7  -0.5  745  288    +10.8       
18 29.10.13 240 (ЮЗ) 10 км    10/10 600 м 
[Sc]
+11.4 +8.2 81 +11  1006.6  -1.1  744  286           
21 29.10.13 240 (ЮЗ) 4{11}  10 км    3/3 600 м 
[Sc]
+10.6 +7.6 82 +10  1006.7  744  287           
00 30.10.13 260 (З) 10 км    ясно 
+9.6 +7.3 86 +10  1007.8  1.1  745  289           
03 30.10.13 250 (З) 10 км    ясно 
+9 +6.9 87 +9  1008.9  746  290  +9         
06 30.10.13 260 (З) 20000 м    1/0 верхняя 
[Cc]
+9.8 +6.7 81 +9  1009.9  1.1  747  289  +8.8         
09 30.10.13 240 (ЮЗ) 20000 м    4/0 средняя, верхняя 
[Ac cast|Cc]
+12.8 +6.3 65 +13  1010.1  0.3  747  286           
12 30.10.13 250 (З) 20000 м    3/3 1000 м 
[Cu hum]
+13.2 +5.2 58 +13  1010.3  0.2  747  286           
15 30.10.13 240 (ЮЗ) 10 км    ясно 
+10.5 +4.4 66 +10  1011.4  748  289    +13.6       
18 30.10.13 260 (З) 10 км    3/0 средняя, верхняя 
[Ac lent|Ci fib]
+9.1 +4.3 72 +9  1012.5  749  291           
21 30.10.13 240 (ЮЗ) н/о    н/о 
+9.1 +4.3 72 +9  1013  0.5  749  291           
00 31.10.13 140 (ЮВ) 10 км    6/0 верхняя 
[Cc]
+7 +4.5 84 +8  1013.1  0.1  749  293           
03 31.10.13 230 (ЮЗ) 10 км    8/0 верхняя 
[Cs]
+7.2 +4.8 85 +8  1012.5  -0.5  749  293  +6.5         
06 31.10.13 150 (ЮВ) 10 км    10/0 средняя, верхняя 
[As op|Cs]
+7 +4.9 87 +8  1011.4  -1.2  748  293           
09 31.10.13 240 (ЮЗ) 10 км  слаб. морось  10/10 420 м 
[St]
+8 +5.6 85 +7  1009.9  -1.4  747  291           
12 31.10.13 250 (З) 4000 м  морось  10/8 330 м средняя 
[St|As op]
+7.8 +6.2 90 +9  1008.6  -1.3  746  291           
15 31.10.13 270 (З) 10 км  в посл. час дождь{морось}  8/8 400 м 
[Frnb]
+7.2 +5.8 91 +7  1008.4  -0.2  745  292    +8.1  0.4     
18 31.10.13 290 (З) 10 км  {снег}  8/0 верхняя 
[Cs]
+6.8 +5.4 91 +7  1008.9  0.5  746  292           
21 31.10.13 300 (СЗ) 10 км  в посл. час ливневой дождь  10/8 330 м средняя 
[Frnb|As op]
+6.2 +4.4 88 +6  1009.6  0.7  746  293           
00 01.11.13 300 (СЗ) 10 км  слаб. морось  10/8 270 м средняя 
[St|As trans]
+5.6 +3.9 89 +5  1011.1  1.4  747  294           
03 01.11.13 310 (СЗ) 3{11}  10 км  {морось}  ясно 
+4 +0.2 76 +3  1013.9  2.7  749  298  +4       
06 01.11.13 290 (З) 10 км  {морось}  10/10 840 м 
[Sc]
+3.7 -1.1 71 +2  1017  752  299  +3.6         
09 01.11.13 300 (СЗ) 10 км  {ливн. осадки}  10/10 870 м 
[Sc]
+3.4 -3.1 62 +1  1018.6  1.6  753  300           
Время (UTC), дата Ветер
(°,м/с) 
Видим.   Явления Облачность Т
(°С)
Тd
(°С)
f(%) Тe
(°С)
Pmin
(гПа)
dP
(гПа)
Po
(мм)
O2
(г/м3)
Тmin Tmax R s Состояние
почвы